Погода в Рязани

Хотите узнать прогноз погоды в Рязани? Тогда Вам сюда: Погода в Рязани

Поиск расширенной информации на нашем сайте:

Полезная информация:

Новости сайта



02.01.2020
Опубликован Долгосрочный прогноз погоды по городам России и ближнего зарубежья на январь 2020 года.
Карты: Прогноз на январь и февраль 2020 года, Сравнение прогнозируемой аномалии приземной температуры воздуха на январь 2020 года по разным моделям.




Погода в Рязани - сегодня

Время (UTC), дата Ветер
(°,м/с) 
Видим.   Явления Облачность Т
(°С)
Тd
(°С)
f(%) Тe
(°С)
Pmin
(гПа)
dP
(гПа)
Po
(мм)
O2
(г/м3)
Тmin Tmax R s Состояние
почвы
00 16.01.22 320 (СЗ) 4-10{11}  4000 м  слаб. снег  10/10 600 м 
[Sc]
-3 -6.3 78 -6  1001.3  2.1  736  301           
03 16.01.22 320 (СЗ) 3{10}  10 км  {снег}  10/8 600 м средняя 
[Sc|Ac trans]
-3.5 -6.7 78 -6  1002.7  1.3  737  302  -3.5    0.2  49  равномерный
сухой снег
100% 
06 16.01.22 320 (СЗ) 3{10}  10 км  {снег}  3/1 600 м средняя 
[Sc|Ac trans]
-4.9 -7.3 83 -7  1006.1  3.3  740  304  -4.9         
09 16.01.22 310 (СЗ) 10 км    3/0 верхняя 
[Ci fib]
-3.6 -8 71 -7  1007.9  1.8  741  303           
12 16.01.22 310 (СЗ) 10 км    8/4 600 м средняя 
[Sc|Ac trans]
-3.5 -8.6 68 -6  1009  742  304           
15 16.01.22 220 (ЮЗ) 10 км    ясно 
-8.7 -10.8 85 -8  1009.8  0.4  742  310    -2.9       
18 16.01.22 240 (ЮЗ) 10 км    4/0 средняя 
[Ac trans]
-7 -9.1 85 -7  1008.8  -0.9  742  308           
21 16.01.22 220 (ЮЗ) 10 км    3/1 600 м средняя 
[Sc|Ac trans]
-7 -9.2 84 -8  1006.7  -2  740  307           
00 17.01.22 200 (Ю) 10 км    3/0 средняя, верхняя 
[Ac trans|Ci fib]
-8.2 -9.9 88 -10  1004.3  -2.4  738  308           
03 17.01.22 200 (Ю) 10 км    4/0 верхняя 
[Ci fib]
-8.6 -10 90 -12  1000.9  -3.4  736  307  -9.1      48  равномерный
сухой снег
100% 
06 17.01.22 190 (Ю) 6-10{10}  10 км    9/0 средняя 
[Ac trans]
-7.8 -9.3 89 -13  997  -3.8  733  305           
09 17.01.22 200 (Ю) 6-11{13}  4000 м  слаб. снег  10/10 300 м 
[Ns]
-4.6 -6.6 86 -9  994.4  -2.3  731  300           
12 17.01.22 200 (Ю) 6-10{12}  4000 м  слаб. снег  10/10 300 м 
[Ns]
-3.5 -4.6 92 -8  991.5  -2.8  729  298           
15 17.01.22 200 (Ю) 5{11}  10 км  позёмок{снег}  10/10 600 м 
[Sc]
-3 -4.4 90 -7  989.6  -1.8  728  297    -3     
18 17.01.22 200 (Ю) 5{10}  4000 м  слаб. снег  10/10 300 м 
[Ns]
-2.6 -3.2 96 -6  989.1  -0.4  727  296           
21 17.01.22 200 (Ю) 5{11}  4000 м  слаб. снег  10/10 300 м 
[Ns]
-1.9 -2.4 96 -5  989  -0.1  727  295           
00 18.01.22 180 (Ю) 4000 м  слаб. снег  10/10 300 м 
[Sc]
-1.6 -2.2 96 -5  989.8  0.8  728  295           
03 18.01.22 180 (Ю) 4000 м  слаб. снег  10/10 300 м 
[Sc]
-1.2 -1.8 96 -2  991.4  1.6  729  295  -3.1    45  равномерный
сухой снег
100% 
06 18.01.22 170 (Ю) 4000 м  дымка{снег}  10/10 300 м 
[Sc]
-1.1 -1.6 96 -1  994.1  2.6  731  296           
09 18.01.22 320 (СЗ) 4000 м  слаб. снег  10/10 300 м 
[Ns]
-0.5 -1 96 997.2  3.1  733  296           
12 18.01.22 010 (С) 4-10{10}  4000 м  слаб. снег  10/10 300 м 
[Ns]
-1.9 -2.7 94 -5  1001.3  3.9  736  299           
15 18.01.22 360 (С) 5-13{14}  10 км  позёмок{снег}  10/3 300 м средняя 
[As op]
-4 -6.3 84 -8  1006.6  740  303    -0.4     
18 18.01.22 360 (С) 4{12}  10 км  позёмок{снег}  10/8 600 м средняя 
[Sc|Ac trans]
-5.8 -8.4 82 -9  1010.8  3.9  743  307           
21 18.01.22 360 (С) 4{10}  10 км    10/10 300 м 
[Sc]
-6 -8.3 84 -9  1013.2  2.4  745  308           
00 19.01.22 360 (С) 10 км  {снег}  10/5 300 м средняя 
[As op]
-6.8 -9.3 82 -10  1014.7  1.3  746  309           
Время (UTC), дата Ветер
(°,м/с) 
Видим.   Явления Облачность Т
(°С)
Тd
(°С)
f(%) Тe
(°С)
Pmin
(гПа)
dP
(гПа)
Po
(мм)
O2
(г/м3)
Тmin Tmax R s Состояние
почвы

Для получения пояснительной информации подведите курсор к названию столбца.

ПОГОДА в Рязани - архив

Всё, что Вы хотите узнать о погоде в Рязани - удобно и подробно!

Выберите нужную дату (начиная с 1 января 2019* года) и нажмите кнопку "Найти".
Будут отображены архивные сводки погоды по пункту Рязань, начиная с указанной даты.


Отображать данные в формате CSV (для использования в таблицах Excel)


Внимание! Наш архив погоды предназначен исключительно для личного некоммерческого использования в познавательных целях. Если Вам необходимы официальные справки о состоянии погоды (для производственных, юридических, коммерческих и т.п. целей), обращайтесь в органы Росгидромета.

*Примечание: данная дата относится к архиву по метеостанциям СССР (Россия, СНГ, Балтия).
Архив по метеостанциям Зарубежной Европы и Азии (кроме Китая) хранится 10 дней, по другим регионам земного шара (Китай, Африка, Америка, Австралия, Океания) - 1 день.

Рязань - район местоположения метеостанции


Название, широта, долгота, высота метеостанции:
Рязань 54.6°ш. 39.7°д. 158 м над ур. моря [Российская Федерация]

Дополнительная информация

В oтличие oт бoльшинства пoгoдных сайтoв мы публикуем пoдрoбную метеoинфoрмацию в детальнoм прoфессиoнальнoм фoрмате.

Характеристики температуры и влажнoсти вoздуха измеряются на высoте 2 м в тени вдали oт зданий и деревьев.
Скoрoсть ветра измеряется на высoте 10 м (на урoвне рoста челoвека скoрoсть ветра ниже в 1.5-2 раза). Если метеoстанция нахoдится в гoрoде или в лесу, тo скoрoсть ветра занижена на 2-4 м/с пo сравнению с oткрытым местoм. Скoрoсть ветра над акватoриями крупных рек и oзёр, а также на вершинах хoлмoв на 2-5 м/с выше, чем в oбычных услoвиях.
Атмoсфернoе давление в разных тoчках местнoсти мoжет значительнo oтличаться oт давления на метеoстанции, в зависимoсти oт услoвий рельефа (при пoдъёме на 10 м давление пoнижается примернo на 1 мм рт.ст.).